Location: Olsztyn
(53.7767°N, 20.4765°E)
Time: 04:59:16
(UTC+01:00)

Vanguard 2 - All Passes

Search period start: 23 January 2022 00:00
Search period end: 02 February 2022 00:00
Orbit: 553 x 2936 km, 32.9° (Epoch: 22 January)

Date Brightness Start Highest point End Pass type
(mag) Time Alt. Az. Time Alt. Az. Time Alt. Az.
23 Jan - 01:36:14 10° WSW 01:47:49 25° SSW 02:00:23 10° SSE visible
23 Jan - 03:53:42 10° SW 03:56:19 10° SW 03:58:56 10° SW visible
23 Jan - 19:32:40 10° S 19:38:31 16° SE 19:45:45 10° ESE visible
23 Jan - 21:36:42 10° SW 21:46:18 29° SSE 21:59:05 10° ESE visible
23 Jan - 23:44:05 10° WSW 23:55:28 31° S 00:09:26 10° SE night (unlit)
24 Jan - 01:54:20 10° WSW 02:04:47 21° SSW 02:16:04 10° S visible
24 Jan - 19:48:40 10° S 19:55:19 19° SSE 20:03:54 10° ESE visible
24 Jan - 21:53:42 10° SW 22:03:23 30° S 22:16:19 10° ESE visible
25 Jan - 00:01:34 10° WSW 00:12:36 28° SSW 00:26:00 10° SE night (unlit)
25 Jan - 02:12:56 10° WSW 02:21:42 17° SW 02:31:03 10° S visible
25 Jan - 20:05:04 10° SSW 20:12:12 22° SSE 20:21:42 10° ESE visible
25 Jan - 22:10:52 10° SW 22:20:30 30° S 22:33:24 10° SE visible
26 Jan - 00:19:15 10° WSW 00:29:43 25° SSW 00:42:16 10° SSE night (unlit)
26 Jan - 02:32:44 10° WSW 02:38:35 13° SW 02:44:40 10° SSW visible
26 Jan - 20:21:46 10° SSW 20:29:10 24° SSE 20:39:15 10° ESE visible
26 Jan - 22:28:08 10° SW 22:37:39 29° S 22:50:18 10° SE visible
27 Jan - 00:37:10 10° WSW 00:46:48 22° SSW 00:58:08 10° SSE night (unlit)
27 Jan - 18:35:26 10° SSE 18:38:56 13° SE 18:43:02 10° ESE visible
27 Jan - 20:38:39 10° SW 20:46:12 25° SSE 20:56:37 10° ESE visible
27 Jan - 22:45:34 10° WSW 22:54:49 27° S 23:06:59 10° SE visible
28 Jan - 00:55:32 10° WSW 01:03:51 18° SSW 01:13:25 10° S night (unlit)
28 Jan - 18:51:14 10° S 18:55:46 15° SSE 19:01:26 10° ESE visible
28 Jan - 20:55:43 10° SW 21:03:18 25° S 21:13:48 10° SE visible
28 Jan - 23:03:09 10° WSW 23:12:00 24° SSW 23:23:23 10° SSE night (unlit)
29 Jan - 01:14:43 10° WSW 01:20:52 14° SSW 01:27:40 10° S night (unlit)
29 Jan - 19:07:36 10° SSW 19:12:41 17° SSE 19:19:17 10° ESE visible
29 Jan - 21:12:56 10° SW 21:20:27 25° S 21:30:48 10° SE visible
29 Jan - 23:20:59 10° WSW 23:29:09 21° SSW 23:39:25 10° SSE night (unlit)
30 Jan - 19:24:18 10° SSW 19:29:41 19° SSE 19:36:50 10° ESE visible
30 Jan - 21:30:18 10° SW 21:37:37 23° S 21:47:35 10° SE visible
30 Jan - 23:39:12 10° WSW 23:46:18 17° SSW 23:54:54 10° S night (unlit)
31 Jan - 19:41:14 10° SSW 19:46:45 20° SSE 19:54:10 10° SE visible
31 Jan - 21:47:50 10° SW 21:54:49 21° S 22:04:05 10° SSE visible
31 Jan - 23:58:12 10° SW 00:03:26 13° SSW 00:09:24 10° S night (unlit)
01 Feb - 17:55:02 10° SSE 17:56:45 11° SSE 17:58:37 10° SE visible
01 Feb - 19:58:21 10° SW 20:03:51 20° S 20:11:16 10° SE visible
01 Feb - 22:05:37 10° SW 22:12:01 19° SSW 22:20:14 10° SSE visible
